Alligator Lake Weather Center

Moon Phase Calendar



Alligator Lake Water Level
Online Cameras

 


      

Current Conditions in Saint Cloud
7/5/2022 12:03:00 PM

89°F
Feels Like 102
Clouds
Humidity
74%
Pressure
30.12"
Wind
3 mph (NNE)
Dew Point
80°F
UV Index
10/10 (Very High)
Visibility
6 mi

Hourly Forecast

Date & Time Tue, Jul 5
12:00 PM
Tue, Jul 5
1:00 PM
Tue, Jul 5
2:00 PM
Tue, Jul 5
3:00 PM
Tue, Jul 5
4:00 PM
Tue, Jul 5
5:00 PM
Tue, Jul 5
6:00 PM
Tue, Jul 5
7:00 PM
Tue, Jul 5
8:00 PM
Tue, Jul 5
9:00 PM
Tue, Jul 5
10:00 PM
Tue, Jul 5
11:00 PM
Wed, Jul 6
12:00 AM
Wed, Jul 6
1:00 AM
Wed, Jul 6
2:00 AM
Wed, Jul 6
3:00 AM
Wed, Jul 6
4:00 AM
Wed, Jul 6
5:00 AM
Wed, Jul 6
6:00 AM
Wed, Jul 6
7:00 AM
Wed, Jul 6
8:00 AM
Wed, Jul 6
9:00 AM
Wed, Jul 6
10:00 AM
Wed, Jul 6
11:00 AM
Wed, Jul 6
12:00 PM
Wed, Jul 6
1:00 PM
Wed, Jul 6
2:00 PM
Wed, Jul 6
3:00 PM
Wed, Jul 6
4:00 PM
Wed, Jul 6
5:00 PM
Wed, Jul 6
6:00 PM
Wed, Jul 6
7:00 PM
Wed, Jul 6
8:00 PM
Wed, Jul 6
9:00 PM
Wed, Jul 6
10:00 PM
Wed, Jul 6
11:00 PM
Thu, Jul 7
12:00 AM
Thu, Jul 7
1:00 AM
Thu, Jul 7
2:00 AM
Thu, Jul 7
3:00 AM
Thu, Jul 7
4:00 AM
Thu, Jul 7
5:00 AM
Thu, Jul 7
6:00 AM
Thu, Jul 7
7:00 AM
Thu, Jul 7
8:00 AM
Thu, Jul 7
9:00 AM
Thu, Jul 7
10:00 AM
Thu, Jul 7
11:00 AM
Condition
Clouds

Clouds

Clouds

Clouds

Clouds

Clouds

Clouds

Clouds

Clouds

Clouds

Clouds

Clouds

Clouds

Clouds

Clouds

Clouds

Clouds

Clouds

Clouds

Clouds

Clear

Clouds

Clouds

Clouds

Clouds

Clouds

Clouds

Clouds

Clouds

Clouds

Clouds

Clouds

Clouds

Clear

Clear

Clear

Clear

Clouds

Clouds

Clouds

Clouds

Clouds

Clouds

Clouds

Clouds

Clouds

Clouds

Clouds
Temperature 90°F90°F91°F92°F91°F89°F88°F86°F83°F81°F80°F79°F78°F77°F77°F76°F76°F76°F75°F76°F79°F82°F85°F88°F90°F93°F94°F92°F91°F91°F88°F86°F83°F81°F80°F79°F78°F77°F77°F77°F76°F76°F75°F76°F79°F82°F85°F88°F
Feels Like 102°F103°F103°F102°F98°F95°F94°F93°F88°F85°F80°F80°F79°F79°F78°F78°F77°F77°F77°F77°F79°F88°F92°F95°F97°F99°F99°F98°F97°F97°F95°F93°F89°F85°F80°F79°F80°F79°F78°F78°F78°F77°F77°F77°F79°F88°F92°F94°F
Cloudiness 20%20%22%38%55%65%65%64%57%35%49%61%70%76%78%30%19%16%13%12%10%20%14%19%23%26%34%66%68%72%63%52%45%6%6%6%7%22%32%96%86%65%59%50%56%25%27%25%
Visibility 6 mi6 mi6 mi6 mi6 mi6 mi6 mi6 mi6 mi6 mi6 mi6 mi6 mi6 mi6 mi6 mi6 mi6 mi6 mi6 mi6 mi6 mi6 mi6 mi6 mi6 mi6 mi6 mi6 mi6 mi6 mi6 mi6 mi6 mi6 mi6 mi6 mi6 mi6 mi6 mi6 mi6 mi6 mi6 mi6 mi6 mi6 mi6 mi
Precipitation 5%6%5%13%13%9%9%9%9%0%0%0%0%0%0%0%0%5%1%2%3%27%11%11%14%6%6%1%1%5%9%9%16%16%15%15%15%7%4%1%1%1%1%1%1%0%0%0%
Humidity 74%68%60%54%54%54%58%64%73%76%79%82%84%86%87%89%90%91%92%91%84%75%67%59%52%48%45%49%52%51%58%63%70%74%77%80%83%85%86%87%88%89%90%90%83%74%66%59%
Dew Point 80°F78°F76°F73°F72°F71°F71°F72°F73°F73°F73°F73°F73°F73°F73°F73°F73°F73°F73°F73°F74°F74°F73°F72°F71°F70°F69°F70°F71°F71°F72°F72°F73°F72°F72°F72°F72°F73°F73°F73°F72°F72°F72°F72°F73°F73°F73°F72°F
Pressure 30.12"30.12"30.09"30.06"30.03"30"30"30"30.03"30.03"30.03"30.03"30.03"30.03"30"30"30"30"30.03"30.03"30.03"30.06"30.06"30.06"30.03"30.03"30"30"30"29.97"29.97"30"30"30"30"30.03"30.03"30.03"30.03"30"30.03"30.03"30.03"30.03"30.06"30.06"30.06"30.06"
Wind Speed 4.3 mph4.6 mph5.6 mph8.1 mph12 mph11.7 mph12.8 mph11.6 mph11 mph9.1 mph7.2 mph6.2 mph5.7 mph5.2 mph4.6 mph4.1 mph3.8 mph3.5 mph3.5 mph3.4 mph3.3 mph4 mph4.4 mph4.6 mph5 mph6 mph7.6 mph10.5 mph10 mph11.4 mph13 mph10.7 mph10.3 mph8.7 mph8.1 mph7.6 mph6.2 mph4.4 mph4.4 mph4.6 mph4.7 mph4.5 mph4.8 mph5 mph5.4 mph6.3 mph6.1 mph5.4 mph
Wind
Direction
106°
ESE
94°
E
85°
E
95°
E
116°
ESE
114°
ESE
104°
ESE
99°
E
101°
E
105°
ESE
109°
ESE
113°
ESE
121°
ESE
120°
ESE
128°
SE
134°
SE
136°
SE
125°
SE
121°
ESE
129°
SE
128°
SE
120°
ESE
123°
ESE
111°
ESE
105°
ESE
101°
E
104°
ESE
118°
ESE
129°
SE
115°
ESE
112°
ESE
110°
ESE
105°
ESE
116°
ESE
130°
SE
140°
SE
145°
SE
143°
SE
144°
SE
156°
SSE
151°
SSE
150°
SSE
148°
SSE
147°
SSE
159°
SSE
174°
S
171°
S
175°
S

Daily Forecast

Date High Low Precip. Humidity
Today
Jul 5

Clouds
92 °F
75 °F
38%
68%
Wednesday
Jul 6

Clouds
94 °F
75 °F
27%
48%
Thursday
Jul 7

Rain
94 °F
76 °F
45%
43%
Friday
Jul 8

Clouds
95 °F
75 °F
23%
42%
Saturday
Jul 9

Rain
95 °F
76 °F
85%
44%
Sunday
Jul 10

Rain
93 °F
76 °F
89%
56%
Monday
Jul 11

Rain
96 °F
76 °F
59%
42%
Tuesday
Jul 12

Rain
98 °F
78 °F
27%
41%
Wednesday
Jul 13

Rain
97 °F
75 °F
97%
42%
Thursday
Jul 14

Rain
93 °F
73 °F
100%
48%
Friday
Jul 15

Rain
89 °F
73 °F
100%
68%
Saturday
Jul 16

Rain
95 °F
72 °F
87%
45%
Sunday
Jul 17

Clouds
94 °F
76 °F
26%
45%
Monday
Jul 18

Rain
87 °F
75 °F
81%
64%
Tuesday
Jul 19

Rain
76 °F
71 °F
97%
81%
Wednesday
Jul 20

Rain
91 °F
71 °F
88%
46%

Temperature 8-14 Day Outlook



Precipitation 8-14 Day Outlook




Quick Links
Alligator Lake News
Alligator Lake Photos
Alligator Lake Videos




About Us
Contact Us
Site Map
Search Site
Advertise With Us
   
Alligator.LakesOnline.com
THE ALLIGATOR LAKE WEBSITE

Copyright 2022, Lakes Online
Privacy    |    Legal